Flag for France Weather past 2 weeks in Rouen, France

Now
82 °F

Passing clouds.


Feels Like: 83 °F
Forecast: 59 / 74 °F
Wind: 6 mph from West

Location: Rouen Airport

Current Time: Jul 4, 2015 at 5:24:56 PM

Latest Report: Jul 4, 2015 at 5:00 PM


Visibility: N/A

Pressure: 30.15 "Hg

Humidity: 48%

Dew point: 61 °F

Location of RouenLocation

Historic Weather in Rouen — Graph

°F

Rouen temperature yesterday

Maximum temperature yesterday: 91 °F (at 6:00 PM)
Minimum temperature yesterday: 59 °F (at 4:30 AM)
Average temperature yesterday: 75 °F

Past Weeks' High & Low Weather Summary

 TemperatureHumidityPressure
High100 °F (Jul 1, 4:00 PM)100% (Jun 20, 6:30 AM)30.27 "Hg (Jun 20, 6:30 AM)
Low45 °F (Jun 23, 5:30 AM)21% (Jun 30, 4:30 PM)29.83 "Hg (Jun 22, 4:30 PM)
Average66 °F68%30.10 "Hg
* Reported Jun 19 4:00 PM — Jul 4 4:00 PM, Rouen, Weather by CustomWeather, © 2015

Note: Actual official high and low records may vary slightly from our data, if they occured in-between our weather recording intervals... More about our weather records

Advertising

Rouen weather history for previous 24 hours

 ConditionsComfort  
Time TempWeatherWind HumidityBarometerVisibility
4:00 PM
Sat, Jul 4
81 °FSunny.5 mph51%30.15 "Hg10 mi
3:30 PM81 °FPassing clouds.6 mph54%30.18 "HgN/A
3:00 PM81 °FSunny.3 mph54%30.15 "Hg10 mi
2:30 PM79 °FPassing clouds.6 mph58%30.18 "HgN/A
2:00 PM77 °FPassing clouds.5 mph57%30.18 "HgN/A
1:30 PM77 °FPassing clouds.7 mph57%30.18 "HgN/A
1:00 PM75 °FPassing clouds.8 mph61%30.18 "HgN/A
12:30 PM75 °FPassing clouds.8 mph61%30.15 "HgN/A
12:00 PM75 °FPartly sunny.8 mph61%30.15 "HgN/A
11:30 AM75 °FPassing clouds.7 mph65%30.15 "HgN/A
11:00 AM73 °FPartly sunny.12 mph69%30.15 "HgN/A
10:30 AM73 °FMild.10 mph69%30.12 "HgN/A
10:00 AM75 °FPartly sunny.9 mph69%30.12 "HgN/A
9:30 AM75 °FMild.8 mph69%30.12 "HgN/A
9:00 AM73 °FPassing clouds.12 mph74%30.09 "HgN/A
8:30 AM73 °FPassing clouds.8 mph69%30.09 "HgN/A
8:00 AM73 °FMild.9 mph69%30.09 "HgN/A
7:30 AM73 °FSunny.2 mph78%30.07 "Hg10 mi
7:00 AM72 °FSunny.8 mph78%30.07 "Hg10 mi
6:30 AM66 °FClear.7 mph88%30.04 "Hg10 mi
6:00 AM64 °FClear.7 mph88%30.04 "Hg10 mi
5:30 AM66 °FClear.3 mph88%30.04 "Hg10 mi
5:00 AM68 °FClear.7 mph88%30.01 "Hg10 mi
4:30 AM70 °FClear.7 mph83%30.01 "Hg10 mi
4:00 AM72 °FClear.9 mph78%30.01 "Hg10 mi
3:30 AM73 °FClear.9 mph78%30.01 "Hg10 mi
3:00 AM73 °FClear.9 mph78%30.01 "Hg10 mi
2:30 AM73 °FClear.6 mph78%30.01 "Hg10 mi
2:00 AM75 °FClear.5 mph74%30.01 "Hg10 mi
1:30 AM75 °FClear.7 mph74%30.01 "Hg10 mi
1:00 AM77 °FClear.7 mph74%30.01 "Hg10 mi
12:30 AM77 °FPassing clouds.8 mph74%30.01 "HgN/A
12:00 AM79 °FClear.10 mph70%30.01 "Hg10 mi
11:30 PM
Fri, Jul 3
79 °FClear.12 mph70%30.01 "Hg10 mi
11:00 PM81 °FSunny.13 mph66%30.01 "Hg10 mi
10:30 PM81 °FSunny.12 mph66%30.01 "Hg10 mi
10:00 PM82 °FSunny.12 mph62%30.01 "Hg10 mi
9:30 PM82 °FSunny.10 mph62%30.01 "Hg10 mi
9:00 PM84 °FSunny.10 mph55%30.01 "Hg10 mi
8:30 PM86 °FSunny.12 mph52%30.01 "Hg10 mi
8:00 PM86 °FSunny.9 mph52%30.04 "Hg10 mi
7:30 PM90 °FSunny.9 mph49%30.04 "Hg10 mi
7:00 PM90 °FSunny.13 mph46%30.04 "Hg10 mi
6:30 PM90 °FSunny.14 mph43%30.07 "Hg10 mi
6:00 PM91 °FPassing clouds.14 mph44%30.07 "HgN/A
5:30 PM90 °FSunny.13 mph43%30.09 "Hg10 mi
5:00 PM90 °FPassing clouds.14 mph43%30.09 "HgN/A
Weather by CustomWeather, © 2015

See weather overviewHow to use our weather pages